Indianapolis, IN

10:31 PM EDT on June 27, 2017 (GMT -0400)
Indianapolis International

Weather History for KIND - February, 2012

Change the Weather History Date:

Friday, February 24, 2012

  Actual Average Record
Temperature  
Mean Temperature 37 °F 35 °F  
Max Temperature 43 °F 43 °F 74 °F (2017)
Min Temperature 31 °F 26 °F -6 °F (2015)
Degree Days  
Heating Degree Days 28 30  
Month to date heating degree days 681 805  
Since 1 July heating degree days 3340 4026  
Cooling Degree Days 0 0  
Month to date cooling degree days 0 0  
Year to date cooling degree days 0 0  
Moisture  
Dew Point 31 °F    
Average Humidity 78    
Maximum Humidity 100    
Minimum Humidity 56    
Precipitation  
Precipitation T in 0.08 in 1.70 in (2016)
Month to date precipitation 0.91 1.96  
Year to date precipitation 4.39 4.62  
Snow  
Snow T in 0.20 in 6.40 in (1974)
Month to date snowfall 2.2 5.8  
Since 1 July snowfall 9.1 22.4  
Snow Depth 0.00 in    
Sea Level Pressure  
Sea Level Pressure 29.63 in    
Wind  
Wind Speed 21 mph (West)    
Max Wind Speed 36 mph    
Max Gust Speed 44 mph    
Visibility 8 miles    
Events Rain , Snow    
T = Trace of Precipitation, MM = Missing Value Source: NWS Daily Summary

Daily Weather History Graph

Daily Weather History Graph

Search for Another Location

Airport or City:

Trip Planner

Search our weather history database for the weather conditions in past years. The results will help you decide how hot, cold, wet, or windy it might be!

Date:

Astronomy

Feb. 24, 2012 Rise Set
Actual Time 7:26 AM EST 6:31 PM EST
Civil Twilight 6:58 AM EST 6:58 PM EST
Nautical Twilight 6:27 AM EST 7:29 PM EST
Astronomical Twilight 5:56 AM EST 8:01 PM EST
Moon 8:21 AM EST (2/24) 9:33 PM EST (2/24)
Length of Visible Light 11h 59m
Length of Day
11h 04m
Waxing Crescent, 7% of the Moon is Illuminated
Feb 24
Waxing Crescent
Feb 29
First Quarter
Mar 8
Full
Mar 14
Last Quarter
Mar 22
New

Hourly Weather History & Observations

Time (EST) Temp. Windchill Dew Point Humidity Pressure Visibility Wind Dir Wind Speed Gust Speed Precip Events Conditions
12:54 AM 42.1 °F 37.7 °F 39.0 °F 89% 29.37 in 8.0 mi Variable 6.9 mph - N/A   Overcast
1:54 AM 41.0 °F 38.0 °F 37.9 °F 89% 29.37 in 6.0 mi ENE 4.6 mph - N/A   Mostly Cloudy
2:54 AM 39.9 °F 35.8 °F 37.9 °F 93% 29.38 in 6.0 mi SSE 5.8 mph - N/A   Overcast
3:54 AM 39.9 °F 33.9 °F 39.0 °F 97% 29.40 in 4.0 mi SW 9.2 mph - N/A   Overcast
4:34 AM 42.8 °F 34.5 °F 39.2 °F 87% 29.39 in 8.0 mi WSW 18.4 mph 24.2 mph N/A   Overcast
4:54 AM 43.0 °F 35.1 °F 39.9 °F 89% 29.41 in 8.0 mi WSW 17.3 mph - N/A   Overcast
5:00 AM 42.8 °F 35.8 °F 39.2 °F 87% 29.39 in 9.0 mi WSW 13.8 mph 24.2 mph N/A   Overcast
5:44 AM 42.8 °F 34.8 °F 37.4 °F 81% 29.42 in 10.0 mi WSW 17.3 mph - N/A   Overcast
5:54 AM 43.0 °F 35.4 °F 37.9 °F 82% 29.42 in 10.0 mi WSW 16.1 mph - N/A   Overcast
6:39 AM 42.8 °F 36.2 °F 37.4 °F 81% 29.42 in 10.0 mi WSW 12.7 mph - N/A   Overcast
6:54 AM 43.0 °F 32.0 °F 36.0 °F 76% 29.45 in 10.0 mi WSW 33.4 mph 43.7 mph N/A   Overcast
7:54 AM 39.9 °F 29.5 °F 28.0 °F 63% 29.49 in 10.0 mi WSW 24.2 mph 33.4 mph N/A   Overcast
8:47 AM 39.2 °F 28.0 °F 30.2 °F 70% 29.49 in 10.0 mi WSW 26.5 mph 36.8 mph N/A   Overcast
8:54 AM 39.9 °F 29.5 °F 30.0 °F 68% 29.51 in 10.0 mi WSW 24.2 mph 33.4 mph N/A   Overcast
9:54 AM 37.9 °F 25.7 °F 33.1 °F 83% 29.55 in 3.0 mi WSW 29.9 mph 42.6 mph 0.00 in Rain Light Rain
10:54 AM 37.0 °F 25.4 °F 32.0 °F 82% 29.60 in 9.0 mi West 25.3 mph 36.8 mph 0.00 in Rain , Snow Light Rain
11:54 AM 36.0 °F 23.9 °F 30.9 °F 82% 29.67 in 9.0 mi West 25.3 mph 36.8 mph 0.00 in Snow Light Snow
12:06 PM 35.6 °F 23.2 °F 30.2 °F 81% 29.66 in 9.0 mi West 26.5 mph 35.7 mph 0.00 in Snow Light Snow
12:34 PM 35.6 °F 23.7 °F 30.2 °F 81% 29.68 in 9.0 mi West 24.2 mph 35.7 mph 0.00 in Snow Light Snow
12:54 PM 37.0 °F 24.9 °F 28.9 °F 73% 29.71 in 9.0 mi West 27.6 mph 39.1 mph 0.00 in Snow Light Snow
1:54 PM 37.9 °F 27.3 °F 28.0 °F 68% 29.74 in 10.0 mi WNW 21.9 mph 39.1 mph 0.00 in   Mostly Cloudy
2:54 PM 37.9 °F 25.7 °F 28.9 °F 70% 29.79 in 6.0 mi West 29.9 mph 35.7 mph 0.00 in Snow Light Snow
3:54 PM 37.9 °F 25.9 °F 27.0 °F 65% 29.82 in 9.0 mi West 28.8 mph 40.3 mph 0.00 in   Mostly Cloudy
4:54 PM 37.0 °F 25.9 °F 28.9 °F 73% 29.85 in 7.0 mi West 23.0 mph 32.2 mph 0.00 in Snow Light Snow
5:54 PM 36.0 °F 25.0 °F 28.9 °F 76% 29.88 in 7.0 mi West 20.7 mph - 0.00 in Snow Light Snow
6:54 PM 35.1 °F 25.2 °F 27.0 °F 72% 29.91 in 7.0 mi West 16.1 mph - 0.00 in Snow Light Snow
7:54 PM 35.1 °F 22.5 °F 21.0 °F 57% 29.95 in 10.0 mi West 26.5 mph 35.7 mph 0.00 in   Scattered Clouds
8:54 PM 33.1 °F 20.6 °F 19.0 °F 56% 29.97 in 10.0 mi West 23.0 mph 39.1 mph N/A   Mostly Cloudy
9:54 PM 32.0 °F 20.8 °F 19.0 °F 59% 29.99 in 10.0 mi West 17.3 mph 28.8 mph N/A   Mostly Cloudy
10:54 PM 32.0 °F 19.8 °F 19.0 °F 59% 29.99 in 10.0 mi West 20.7 mph 27.6 mph 0.00 in Snow Light Snow
11:54 PM 32.0 °F 20.1 °F 21.0 °F 64% 29.99 in 8.0 mi West 19.6 mph 26.5 mph 0.00 in Snow Light Snow